WZZ2054 EPMO-LUKK

Flight info

Callsign WZZ2054
Flight time N/A
Altitude 37000
Route XIMBA DCT OMAVA DCT ROBTU DCT KENIN DCT SAT DCT SOMET DCT BUZZE DCT UNIRA
Aircraft A21N/M-SDE1E2E3FGIJ1J4RWXY/LB1

Departure

Time 2026-05-08 20:29
Airport Warsaw Modlin Airport (EPMO)

Arrival

Time N/A
Airport Chişinău International Airport (LUKK)
Time Latitude Longitude Altitude Speed Heading
2026-05-08 20:05 52.44768 20.65520 352 ft 0 kts 207°
2026-05-08 20:18 52.44776 20.65527 352 ft 2 kts 214°
2026-05-08 20:18 52.44789 20.65540 352 ft 2 kts 202°
2026-05-08 20:18 52.44803 20.65538 352 ft 2 kts 148°
2026-05-08 20:19 52.44812 20.65519 352 ft 2 kts 100°
2026-05-08 20:19 52.44810 20.65496 352 ft 2 kts 73°
2026-05-08 20:19 52.44809 20.65486 352 ft 0 kts 80°
2026-05-08 20:22 52.44809 20.65488 352 ft 0 kts 80°
2026-05-08 20:22 52.44816 20.65548 352 ft 10 kts 80°
2026-05-08 20:22 52.44829 20.65685 352 ft 12 kts 82°
2026-05-08 20:22 52.44838 20.65778 353 ft 12 kts 81°
2026-05-08 20:23 52.44857 20.65967 353 ft 12 kts 80°
2026-05-08 20:23 52.44872 20.66115 353 ft 13 kts 82°
2026-05-08 20:23 52.44885 20.66266 353 ft 13 kts 82°
2026-05-08 20:23 52.44899 20.66422 353 ft 14 kts 79°
2026-05-08 20:24 52.44917 20.66584 352 ft 14 kts 81°
2026-05-08 20:24 52.44933 20.66755 351 ft 15 kts 81°
2026-05-08 20:24 52.44950 20.66929 351 ft 15 kts 81°
2026-05-08 20:24 52.45010 20.67055 350 ft 15 kts 359°
2026-05-08 20:25 52.45119 20.67027 349 ft 16 kts 352°
2026-05-08 20:25 52.45171 20.67009 348 ft 0 kts 344°
2026-05-08 20:27 52.45173 20.67008 348 ft 0 kts 344°
2026-05-08 20:27 52.45174 20.67008 348 ft 0 kts 344°
2026-05-08 20:27 52.45189 20.67001 348 ft 5 kts 344°
2026-05-08 20:28 52.45240 20.66982 348 ft 8 kts 351°
2026-05-08 20:28 52.45286 20.66923 348 ft 9 kts 276°
2026-05-08 20:28 52.45272 20.66771 349 ft 28 kts 261°
2026-05-08 20:28 52.45202 20.66042 351 ft 97 kts 261°
2026-05-08 20:29 52.45067 20.64653 347 ft 151 kts 262°
2026-05-08 20:29 52.44893 20.62823 705 ft 163 kts 263°
2026-05-08 20:29 52.44729 20.60990 1261 ft 165 kts 264°
2026-05-08 20:29 52.44574 20.59147 1822 ft 168 kts 266°
2026-05-08 20:30 52.44380 20.57230 2308 ft 176 kts 257°
2026-05-08 20:30 52.43676 20.55530 2612 ft 191 kts 217°
2026-05-08 20:30 52.42399 20.54748 2894 ft 205 kts 192°
2026-05-08 20:30 52.40950 20.54383 3188 ft 220 kts 188°
2026-05-08 20:31 52.39362 20.54069 3442 ft 238 kts 188°
2026-05-08 20:31 52.37670 20.53757 3766 ft 255 kts 187°
2026-05-08 20:31 52.35847 20.53428 4167 ft 270 kts 187°
2026-05-08 20:31 52.33973 20.53097 4839 ft 274 kts 187°
2026-05-08 20:32 52.32106 20.52776 5583 ft 275 kts 187°
2026-05-08 20:32 52.30193 20.52842 6297 ft 279 kts 171°
2026-05-08 20:32 52.28316 20.53598 7043 ft 281 kts 165°
2026-05-08 20:32 52.26427 20.54500 7731 ft 285 kts 165°
2026-05-08 20:33 52.24538 20.55386 8420 ft 288 kts 166°
2026-05-08 20:33 52.22596 20.56256 9112 ft 291 kts 167°
2026-05-08 20:33 52.20633 20.57101 9770 ft 294 kts 168°
2026-05-08 20:33 52.18650 20.57932 10430 ft 297 kts 168°
2026-05-08 20:34 52.16622 20.58763 10834 ft 310 kts 168°